Terug naar catalogus

STARLINK-35622

ActiefCommunicatieVLEO
NORAD 66103·PAYLOAD·🇺🇸 United States

Gelanceerd Oct 19, 2025 vanaf Vandenberg Space Force Base

Loading…

Volgende Passages (komende 24 uur)

TLE

VersSource: CelesTrak SupGP

Epoch: Sep 14, 2026, 22:35 UTC

1 66103C 25236T   26257.94145833  .00043695  00000+0  12913-2 0  2574
2 66103  53.1577 301.6684 0001077  90.8148 291.4250 15.34360648    13

Volg STARLINK-35622 in realtime met AllMySat

Download on the App Store